Skip Page Navigation
NASA JPL Caltech
NASA Logo - Jet Propulsion Laboratory + View the NASA Portal
+ Center for Near-Earth Object Studies
JPL Home Earth Solar System Stars & Galaxies Technology
JPL Solar System Dynamics
BODIES ORBITS EPHEMERIDES TOOLS PHYSICAL DATA DISCOVERY FAQ SITE MAP
JPL Small-Body Database Browser
Search: [ help ]  
118901 (2000 UH67)
Classification: Main-belt Asteroid          SPK-ID: 2118901
Ephemeris | Orbit Diagram | Orbital Elements | Mission Design | Physical Parameters | Discovery Circumstances | Close-Approach Data ]

[ show orbit diagram ]
Orbital Elements at Epoch 2459200.5 (2020-Dec-17.0) TDB
Reference: JPL 16 (heliocentric ecliptic J2000)
 Element Value Uncertainty (1-sigma)   Units 
e .09468047703920759 6.1969e-08  
a 3.102643818627885 3.3273e-08 au
q 2.808884021797448 2.1158e-07 au
i 9.639493104351994 8.2415e-06 deg
node 16.77893017341289 2.6813e-05 deg
peri 299.678209299958 5.0298e-05 deg
M 315.8593896008445 4.1546e-05 deg
tp 2459445.255321592735
(2021-Aug-18.75532159)
0.00023002 TDB
period 1996.164415865671
5.47
3.2111e-05
8.792e-08
d
yr
n .1803458658709131 2.9011e-09 deg/d
Q 3.396403615458322 3.6424e-08 au
  Orbit Determination Parameters
   # obs. used (total)      395  
   data-arc span      7153 days (19.58 yr)  
   first obs. used      2000-10-25  
   last obs. used      2020-05-26  
   planetary ephem.      DE441  
   SB-pert. ephem.      SB441-N16  
   condition code      0  
   norm. resid. RMS      .64106  
   source      ORB  
   producer      Otto Matic  
   solution date      2021-Apr-13 16:59:24  

Additional Information
 Earth MOID = 1.81022 au 
 Jupiter MOID = 1.95087 au 
 T_jup = 3.193 
[ show covariance matrix ]

Ephemeris | Orbit Diagram | Orbital Elements | Mission Design | Physical Parameters | Discovery Circumstances | Close-Approach Data ]

Physical Parameter Table
Parameter Symbol Value Units Sigma Reference Notes
absolute magnitude H 15.04   n/a E2021B55  

118901 (2000 UH67)          Discovered 2000-Oct-25 by LINEAR at Socorro
Reference: 20051116/Numbers.arcLast Updated: 2005-11-21

[ show close-approach data ]
Ephemeris | Orbit Diagram | Orbital Elements | Mission Design | Physical Parameters | Discovery Circumstances | Close-Approach Data ]
ABOUT SSD CREDITS/AWARDS PRIVACY/COPYRIGHT GLOSSARY LINKS
FirstGov 2021-Apr-21 22:08 UT
(server date/time)  
NASA Home Page
Site Manager:   Ryan S. Park
Webmaster  Alan B. Chamberlin